Location: *
(50.2903°S, 172.5375°W)
Time: 16:48:21
(UTC+00:00)

USA 238 - Pass Details

Date: 17 November 2019
Orbit: 1023 x 1189 km, 63.4° (Epoch: 29 November)

Event Time Altitude Azimuth Distance (km) Brightness Sun altitude
Exits shadow 12:46:17 20° 305° (NW) 2,420 5.1 -17.9°
Maximum altitude 12:51:43 72° 223° (SW) 1,217 4.0 -17.5°
Drops below altitude 10° 12:58:58 10° 138° (SE) 3,017 7.2 -17.0°
Sets 13:01:38 0° 135° (SE) 3,954 8.1 -16.8°
